Flag for Puerto Rico Weather past 2 weeks in San Juan, Puerto Rico

Now
84 °F

Scattered clouds.


Feels Like: 88 °F
Forecast: N/A
Wind: 16 mph from East

Location: Luis Munoz Marin


UV Index: N/A

Visibility: 10 mi


Pressure: 29.99 "Hg

Humidity: 61%

Dew point: 69 °F

Location of San JuanLocation

Historic Weather in San Juan

°F

San Juan temperature yesterday

Maximum temperature yesterday: 87 °F (at 12:56 PM)
Minimum temperature yesterday: 77 °F (at 1:56 AM)
Average temperature yesterday: 81 °F

Past Weeks' High & Low Weather Summary

 TemperatureHumidityPressure
High88 °F (Apr 6, 11:56 AM)89% (Apr 4, 5:56 AM)30.14 "Hg (Apr 4, 5:56 AM)
Low75 °F (Apr 12, 3:56 AM)50% (Apr 6, 11:56 AM)29.89 "Hg (Apr 15, 3:56 PM)
Average81 °F68%30.02 "Hg
* Reported Apr 2 3:56 PM — Apr 17 3:56 PM, San Juan, Weather by CustomWeather, © 2014

Note: Actual official high and low records may vary slightly from our data, if they occured in-between our weather recording intervals... More about our weather records

Advertising

Historic Weather Conditions — Data for Previous 24 hours

 ConditionsComfort  
Time TempWeatherWind HumidityBarometerVisibility
3:56 PM
Apr 17
84 °FScattered clouds.16 mph61%29.99 "Hg10 mi
2:56 PM85 °FScattered clouds.14 mph59%30.00 "Hg10 mi
1:56 PM85 °FScattered clouds.21 mph57%30.01 "Hg10 mi
12:56 PM86 °FScattered clouds.18 mph61%30.02 "Hg10 mi
11:56 AM86 °FScattered clouds.23 mph57%30.03 "Hg10 mi
10:56 AM86 °FScattered clouds.21 mph59%30.04 "Hg10 mi
9:56 AM83 °FScattered clouds.20 mph68%30.04 "Hg10 mi
8:56 AM81 °FScattered clouds.15 mph72%30.03 "Hg10 mi
7:56 AM79 °FScattered clouds.9 mph77%30.02 "Hg10 mi
6:56 AM76 °FPassing clouds.3 mph82%30.00 "Hg10 mi
5:56 AM75 °FPassing clouds.3 mph85%29.99 "Hg10 mi
4:56 AM76 °FPartly cloudy.3 mph80%29.98 "Hg10 mi
3:56 AM78 °FPassing clouds.No wind76%29.97 "Hg10 mi
2:56 AM78 °FPassing clouds.7 mph76%29.97 "Hg10 mi
1:56 AM79 °FPassing clouds.12 mph74%29.98 "Hg10 mi
12:56 AM80 °FPassing clouds.10 mph71%30.00 "Hg10 mi
11:56 PM
Apr 16
80 °FPassing clouds.13 mph71%30.01 "Hg10 mi
10:56 PM80 °FPartly cloudy.8 mph71%30.01 "Hg10 mi
9:56 PM81 °FPassing clouds.10 mph69%30.01 "Hg10 mi
8:56 PM80 °FPassing clouds.6 mph76%30.00 "Hg10 mi
7:56 PM81 °FPassing clouds.8 mph72%29.98 "Hg10 mi
6:56 PM81 °FScattered clouds.10 mph72%29.97 "Hg10 mi
5:56 PM83 °FScattered clouds.15 mph68%29.94 "Hg10 mi
Weather by CustomWeather, © 2014

See weather overview